Location: Unspecified
(0.0000°N, 0.0000°E)
Time: 23:50:41
(UTC+00:00)

S-56A Canister/Altair - Pass Details

Date: 05 October 2020
Orbit: 633 x 2499 km, 38.9° (Epoch: 28 October)

Event Time Altitude Azimuth Distance (km) Brightness Sun altitude
Rises 11:14:59 0° 264° (W) 4,817 11.5 80.3°
Reaches altitude 10° 11:18:35 10° 276° (W) 4,107 11.3 81.0°
Maximum altitude 11:27:41 27° 329° (NNW) 3,494 11.2 82.8°
Drops below altitude 10° 11:38:55 10° 20° (NNE) 5,088 11.8 84.5°
Sets 11:44:11 0° 31° (NNE) 6,164 12.1 84.9°
